TimeCDT,TemperatureF,Dew PointF,Humidity,Sea Level PressureIn,VisibilityMPH,Wind Direction,Wind SpeedMPH,Gust SpeedMPH,PrecipitationIn,Events,Conditions,WindDirDegrees,DateUTC
12:58 AM,64.4,60.8,88,29.94,10.0,SSE,6.9,-,N/A,,Overcast,160,2013-10-12 05:58:00
1:58 AM,64.2,61.0,89,29.94,10.0,SSE,6.9,-,N/A,,Mostly Cloudy,160,2013-10-12 06:58:00
2:58 AM,62.8,61.0,94,29.93,10.0,SSE,5.8,-,N/A,,Scattered Clouds,150,2013-10-12 07:58:00
3:58 AM,61.7,61.5,99,29.94,10.0,South,3.5,-,N/A,,Scattered Clouds,180,2013-10-12 08:58:00
4:58 AM,64.0,61.7,92,29.96,10.0,WNW,3.5,-,N/A,,Mostly Cloudy,290,2013-10-12 09:58:00
5:58 AM,62.8,61.9,97,30.00,10.0,West,3.5,-,N/A,,Mostly Cloudy,270,2013-10-12 10:58:00
6:13 AM,62.6,62.6,100,30.01,10.0,Variable,5.8,-,N/A,,Light Drizzle,0,2013-10-12 11:13:00
6:40 AM,64.4,60.8,88,30.02,10.0,Variable,6.9,-,N/A,,Light Drizzle,0,2013-10-12 11:40:00
6:58 AM,63.5,59.4,86,30.02,10.0,WNW,9.2,17.3,0.00,Rain,Light Rain,300,2013-10-12 11:58:00
7:06 AM,62.6,59.0,88,30.02,10.0,NW,10.4,-,N/A,,Mostly Cloudy,320,2013-10-12 12:06:00
7:58 AM,60.3,59.0,96,30.02,10.0,WNW,1.2,-,0.01,,Mostly Cloudy,290,2013-10-12 12:58:00
8:13 AM,60.8,59.0,94,30.03,1.8,ESE,1.2,-,N/A,,Overcast,110,2013-10-12 13:13:00
8:18 AM,60.8,59.0,94,30.03,1.0,SE,3.5,-,N/A,,Overcast,130,2013-10-12 13:18:00
8:23 AM,60.8,59.0,94,30.03,1.0,SE,3.5,-,N/A,,Overcast,130,2013-10-12 13:23:00
8:28 AM,60.8,60.8,100,30.02,0.8,ESE,4.6,-,N/A,,Overcast,120,2013-10-12 13:28:00
8:38 AM,60.8,60.8,100,30.02,1.2,SSE,5.8,-,N/A,,Mostly Cloudy,160,2013-10-12 13:38:00
8:41 AM,60.8,60.8,100,30.04,1.8,Variable,2.3,-,N/A,Rain,Light Rain,0,2013-10-12 13:41:00
8:46 AM,60.8,60.8,100,30.03,4.0,South,2.3,-,N/A,Rain,Light Rain,190,2013-10-12 13:46:00
8:58 AM,61.2,60.6,98,30.01,10.0,SE,5.8,-,0.00,Rain,Light Rain,140,2013-10-12 13:58:00
9:22 AM,60.8,60.8,100,30.04,10.0,SSW,2.3,-,N/A,,Scattered Clouds,210,2013-10-12 14:22:00
9:58 AM,62.6,62.6,100,30.04,10.0,WNW,3.5,-,0.00,,Scattered Clouds,300,2013-10-12 14:58:00
10:58 AM,66.4,61.0,83,30.07,10.0,WNW,8.1,-,N/A,,Mostly Cloudy,300,2013-10-12 15:58:00
11:23 AM,66.2,60.8,83,30.09,10.0,WNW,6.9,-,N/A,,Scattered Clouds,290,2013-10-12 16:23:00
11:38 AM,66.2,60.8,83,30.10,10.0,WNW,6.9,-,N/A,,Mostly Cloudy,290,2013-10-12 16:38:00
11:53 AM,66.2,59.0,78,30.10,10.0,WSW,4.6,-,N/A,,Scattered Clouds,250,2013-10-12 16:53:00
11:58 AM,68.0,60.8,78,30.09,10.0,West,5.8,-,N/A,,Mostly Cloudy,270,2013-10-12 16:58:00
12:18 PM,68.0,60.8,78,30.11,10.0,Variable,5.8,-,N/A,,Scattered Clouds,0,2013-10-12 17:18:00
12:23 PM,68.0,59.0,73,30.11,10.0,NW,8.1,-,N/A,,Mostly Cloudy,310,2013-10-12 17:23:00
12:28 PM,69.8,60.8,73,30.11,10.0,NW,8.1,-,N/A,,Scattered Clouds,310,2013-10-12 17:28:00
12:48 PM,69.8,59.0,68,30.11,10.0,NW,8.1,-,N/A,,Scattered Clouds,320,2013-10-12 17:48:00
12:58 PM,68.9,59.7,72,30.10,10.0,NW,6.9,-,N/A,,Scattered Clouds,310,2013-10-12 17:58:00
1:38 PM,71.6,60.8,69,30.11,10.0,NNW,10.4,-,N/A,,Scattered Clouds,340,2013-10-12 18:38:00
1:58 PM,70.7,59.2,67,30.09,10.0,NNW,9.2,-,N/A,,Scattered Clouds,340,2013-10-12 18:58:00
2:28 PM,71.6,59.0,64,30.10,10.0,Variable,4.6,-,N/A,,Mostly Cloudy,0,2013-10-12 19:28:00
2:43 PM,69.8,59.0,68,30.10,10.0,NNW,6.9,-,N/A,,Scattered Clouds,330,2013-10-12 19:43:00
2:58 PM,70.7,59.0,66,30.09,10.0,North,8.1,-,N/A,,Scattered Clouds,360,2013-10-12 19:58:00
3:58 PM,70.9,56.8,61,30.10,10.0,NNW,8.1,-,N/A,,Clear,340,2013-10-12 20:58:00
4:58 PM,69.8,54.1,57,30.10,10.0,NNW,8.1,-,N/A,,Clear,340,2013-10-12 21:58:00
5:58 PM,67.3,52.0,58,30.11,10.0,NNW,5.8,-,N/A,,Clear,340,2013-10-12 22:58:00
6:58 PM,61.0,51.8,72,30.13,10.0,NNW,4.6,-,N/A,,Clear,330,2013-10-12 23:58:00
7:58 PM,55.9,52.5,88,30.15,7.0,NW,2.3,-,N/A,,Clear,310,2013-10-13 00:58:00
8:58 PM,52.2,51.1,96,30.19,9.0,West,1.2,-,N/A,,Clear,270,2013-10-13 01:58:00
9:58 PM,51.3,50.9,99,30.21,5.0,NW,2.3,-,N/A,,Clear,320,2013-10-13 02:58:00
10:58 PM,48.9,48.6,99,30.22,6.0,NW,2.3,-,N/A,,Clear,320,2013-10-13 03:58:00
11:58 PM,52.2,48.6,88,30.22,4.0,North,4.6,-,N/A,,Clear,350,2013-10-13 04:58:00